DECAYED

STARLINK-4680, 53749 (Decayed)

Orbit data source: Space-Track

STARLINK-4680, 53749 was a payload satellite owned by SpaceX/Seattle (US) in LEO that was launched on Mon, 05 Sep 2022 UTC via an FALCON 9 launch vehicle from the Air Force Eastern Test Range (AFETR). Payload-class satellites include a variety of spacecraft equipped with specific instruments for various scientific and technological missions. These include communications satellites like Starlink; space stations such as the ISS; scientific satellites like the Hubble; Earth observation satellites from companies like Planet Labs, Umbra, and HawkEye 360; GPS; miniature CubeSats for education and research; and military/defense satellites.

Not visible in the next 10 days
Identifier
53749, 2022-107BB
Orbit
Decayed
Country
Flag of USUS
Related business
Manufacturer
SpaceX/Seattle
Mission
Decayed Commercial Communications
Bus & Motor
STARLINK, Unknown motor
Mass
305 kg wet, ~290 kg dry
Launch date (UTC)
2022-09-05 (4 years ago)
Launch vehicle
FALCON 9
Launch site
Air Force Eastern Test Range (AFETR)
Object type
Payload
Rocket body
Debris
Shape & HBR
Box + 1 Pan, 10.1 m
Radar Cross Section
13.562 m², Large (>1 m²)

Expand to show TLE details & history
Last TLE update: 1 year ago

TLE from 1 year ago
0 STARLINK-4680
1 53749U 22107BB  25112.72904781  .20525456  12269-4  37600-2 0  9990
2 53749  53.1999 196.4684 0009873 339.4438 165.5377 16.31434691146323
Epoch: 2025-04-22T17:29Z
TLE epoch observation values (Epoch: 2025-04-22T17:29:49.730Z)
Latitude
27.41771°
Longitude
-119.71008°
Altitude
196.285 km
Speed
7.789 km/s
True Right ascension
23h 35m 05s
True Declination
27° 15' 55"
Sunlit
Object was in daylight at epoch
Visualization orbit readout
Latitude
Unknown
Longitude
Unknown
Altitude
Unknown
Speed
Unknown
Apparent Right ascension
Unknown
Apparent Declination
Unknown
Sunlit
N/A
Visualization observer readout
Local Sidereal Time
21:27:41
Azimuth
Unknown
Elevation
Unknown
Doppler factor
Unknown
Orbital elements
Apogee altitude
195.431 km
Perigee altitude
182.464 km
Semi-major axis
6,567.085 km
Eccentricity
0.00099
Inclination
53.1999°
RAAN
196.4684°
Arg. of periapsis
339.4438°
True anomaly
165.56592°
Mean anomaly
165.5377°
Eccentric anomaly
165.55181°
Mean motion
4.07835 °/min
Orbital period
88.27 mins
BSTAR
0.00376
Loading maneuver chart data...
Computing Atmospheric mass density...
Loading historical data...
Loading historical data...
Loading historical data...
Loading historical data...
Loading historical data...
Loading historical data...
Loading historical data...

Documentation

Showing up to 5 results
|